[[{"header":{"parameterUnit":"m.s-1","parameterCategory":1,"la1":30.2991,"la2":30.254,"lo1":-89.0895,"lo2":-89.0444,"dy":0.0017,"dx":0.0017,"nx":28,"ny":28,"refTime":"2025-08-01T03:00:00:Z","depth":0,"parameterNumber":2,"parameterNumberName":"U-component_of_WINDS"},"data":[0,0,0,0,0,0,0,0,0,0,0,0,0,0,0,0,0,0,0,0,0,0,0,0,0,0,0,0,0,0,0,0,0,0,0,0,0,0,0,0,0,0,0,0,0,0,0,0,0,0,0,0,0,0,0,0,0,0,1.8804,1.8805,0,1.8937,1.8939,1.894,1.8972,1.8971,1.897,1.8969,1.9108,1.9113,1.9117,0,0,0,0,0,0,0,0,0,0,0,0,0,1.8579,1.8583,1.8804,1.8805,1.8807,1.8937,1.8939,1.8941,1.8972,1.8971,1.897,1.8969,1.9107,1.9112,1.9118,0,0,0,0,0,0,0,0,0,0,0,0,0,1.8691,1.8585,1.8803,1.8838,1.8843,1.8937,1.8939,1.8941,1.8973,1.8971,1.897,1.8969,1.9105,1.9112,1.9118,1.9188,0,0,1.9139,1.9142,0,0,0,0,0,0,0,0,1.8685,1.8699,1.8832,1.8836,1.8841,1.8937,1.8911,1.9024,1.8973,1.8923,1.8969,1.8968,1.9052,1.9064,1.9092,1.9194,1.92,1.914,1.9144,1.9147,1.9149,0,0,0,0,0,0,0,1.8677,1.8694,1.8857,1.8833,1.8839,1.8849,1.8863,1.8932,1.8994,1.8928,1.893,1.8945,1.9055,1.9085,1.9095,1.9202,1.914,1.9146,1.915,1.9153,1.9371,1.9372,0,0,0,0,0,0,1.8663,1.8687,1.8852,1.8861,1.8758,1.8854,1.887,1.8907,1.8993,1.9005,1.8946,1.8946,1.9074,1.9087,1.91,1.9188,1.9147,1.9153,1.9157,1.9369,1.9371,1.9373,0,0,0,0,0,0,1.8658,1.8677,1.8847,1.8775,1.8797,1.8859,1.8901,1.8911,1.8941,1.9008,1.9019,1.8966,1.9073,1.9091,1.9166,1.9193,1.9156,1.9163,1.9367,1.937,1.9372,1.9363,0,0,0,0,0,0,1.8651,1.8675,1.8701,1.8775,1.8801,1.8909,1.8903,1.8914,1.8952,1.8954,1.9029,1.904,1.9074,1.9156,1.9173,1.9202,1.9168,1.9365,1.9368,1.9371,1.9362,1.9365,1.9369,0,0,0,0,0,1.8643,1.8693,1.8702,1.8722,1.8834,1.8911,1.8926,1.8963,1.8954,1.8982,1.9025,1.9037,1.9188,1.9163,1.9183,1.9214,1.9363,1.9367,1.9371,1.936,1.9365,1.9369,0,0,0,0,0,0,1.8621,1.8704,1.8714,1.879,1.8843,1.8916,1.8951,1.8967,1.9024,1.9023,1.9068,1.9084,1.9157,1.9194,1.9165,1.9287,1.9276,1.9283,1.926,1.9265,1.9269,1.9258,1.9174,0,0,0,0,0,1.8625,1.8679,1.8749,1.8809,1.8835,1.8889,1.8923,1.8948,1.9005,1.9028,1.9077,1.9133,1.9193,1.9231,1.929,1.9367,1.9385,1.9399,1.9403,1.9405,1.9411,1.9457,1.9464,1.9386,1.9386,1.9386,0,0,1.8634,1.8685,1.8717,1.8806,1.885,1.8907,1.8907,1.8967,1.901,1.9037,1.9111,1.9149,1.9215,1.9292,1.9329,1.9325,1.9437,1.941,1.9412,1.9417,1.9461,1.9469,1.9475,1.9388,1.9388,1.9387,0,0,1.8678,1.8722,1.8778,1.8822,1.8889,1.8925,1.8938,1.901,1.9036,1.9111,1.9134,1.9186,1.9288,1.9334,1.9371,1.9436,1.945,1.9454,1.9472,1.9516,1.9522,1.9528,1.9552,1.956,1.946,1.946,1.946,0,1.868,1.8765,1.8804,1.8863,1.8902,1.893,1.8988,1.9029,1.9112,1.9139,1.9134,1.9264,1.931,1.9399,1.9415,1.9443,1.9461,1.9445,1.9518,1.9524,1.953,1.9553,1.9562,1.946,1.946,1.946,1.946,0,1.8765,1.8824,1.8861,1.894,1.8984,1.9042,1.9091,1.9131,1.9152,1.9189,1.9266,1.9323,1.9394,1.9418,1.9439,1.9511,1.9506,1.9509,1.9498,1.9537,1.956,1.9569,1.946,1.946,1.946,1.946,0,0,1.8797,1.8899,1.8912,1.8949,1.9026,1.9073,1.9134,1.9203,1.9237,1.9294,1.9346,1.9433,1.9437,1.9479,1.9506,1.9544,1.9593,1.9543,1.9545,1.955,1.9677,1.9675,1.9684,1.9604,1.9605,1.9607,1.9672,0,1.8851,1.8958,1.8997,1.9085,1.9141,1.917,1.9223,1.9277,1.9313,1.9367,1.9408,1.9469,1.9469,1.9495,1.9534,1.9579,1.9619,1.9575,1.9654,1.9656,1.9636,1.9696,1.9693,1.9751,1.9681,1.9682,1.9684,0,1.8928,1.8986,1.908,1.9152,1.9177,1.9224,1.9292,1.9343,1.9405,1.943,1.9477,1.9502,1.9568,1.9554,1.9646,1.9615,1.965,1.9677,1.9681,1.9689,1.9672,1.9706,1.9771,1.978,1.9698,1.9697,1.9696,0,1.8943,1.9045,1.9115,1.9146,1.9231,1.9264,1.9301,1.9362,1.9402,1.9462,1.9489,1.9556,1.9593,1.9645,1.9689,1.9674,1.9777,1.9766,1.98,1.9799,1.982,1.9818,1.9891,1.9842,1.9842,1.9842,1.9842,0,1.8999,1.9055,1.9123,1.9165,1.9231,1.9275,1.9339,1.9378,1.9433,1.9485,1.9515,1.9564,1.9618,1.9674,1.9709,1.978,1.9797,1.9819,1.9828,1.9816,1.9814,1.9839,1.9837,1.9844,1.9844,1.9843,1.9843,0,1.9025,1.9072,1.9151,1.9226,1.9247,1.9291,1.9356,1.94,1.9439,1.9505,1.9523,1.9584,1.9652,1.9701,1.9789,1.9812,1.9889,1.9898,1.9868,1.9872,1.9903,1.99,1.9995,2.0011,1.9951,1.9952,1.9952,0,1.9057,1.9102,1.9182,1.9219,1.9257,1.9316,1.9357,1.9404,1.9446,1.9522,1.9557,1.9627,1.9685,1.9793,1.9846,1.9914,1.9924,1.9953,1.9935,1.9923,1.9926,1.9922,1.9928,1.9956,1.9956,1.9956,1.9957,0,1.911,1.9132,1.919,1.9257,1.9306,1.9361,1.9417,1.9446,1.9502,1.9549,1.9618,1.9664,1.9754,1.9824,1.9897,1.9937,1.9957,1.9962,1.9974,1.9963,1.9944,1.9955,1.9875,1.996,1.996,1.9959,1.9959,1.9959,1.9141,1.9182,1.9246,1.931,1.9357,1.9409,1.9455,1.95,1.9558,1.9635,1.9659,1.9732,1.9796,1.9897,1.9938,1.9997,1.9996,2.0012,2.0016,2.002,2.0019,1.9935,2.0011,2.0011,2.0011,2.0011,2.001,0,1.9196,1.9238,1.9297,1.9374,1.9426,1.944,1.9503,1.9545,1.9609,1.9667,1.9724,1.9805,1.9874,1.9933,2.0004,2.004,2.0051,2.0057,2.0055,2.0064,2.0016,1.9999,2.0047,2.0047,2.0047,2.0047,2.0047,2.0047,1.923,1.9301,1.9331,1.9427,1.947,1.9541,1.9576,1.9624,1.9671,1.976,1.9817,1.9855,1.9915,1.9991,2.0055,2.0071,2.0096,2.01,2.0118,2.0072,2.0067,2.0063,2.0048,2.0105,2.0105,2.0162,2.0162,2.0163]},{"header":{"parameterUnit":"m.s-1","parameterCategory":1,"la1":30.2991,"la2":30.254,"lo1":-89.0895,"lo2":-89.0444,"dy":0.0017,"dx":0.0017,"nx":28,"ny":28,"refTime":"2025-08-01T03:00:00:Z","depth":0,"parameterNumber":3,"parameterNumberName":"V-component_of_WINDS"},"data":[0,0,0,0,0,0,0,0,0,0,0,0,0,0,0,0,0,0,0,0,0,0,0,0,0,0,0,0,0,0,0,0,0,0,0,0,0,0,0,0,0,0,0,0,0,0,0,0,0,0,0,0,0,0,0,0,0,0,2.8802,2.8802,0,2.8853,2.8853,2.8854,2.8841,2.884,2.8839,2.8838,2.8886,2.8888,2.889,0,0,0,0,0,0,0,0,0,0,0,0,0,2.869,2.8692,2.8802,2.8802,2.8803,2.8853,2.8853,2.8854,2.8841,2.884,2.8839,2.8838,2.8885,2.8888,2.889,0,0,0,0,0,0,0,0,0,0,0,0,0,2.8739,2.8692,2.8802,2.8803,2.8804,2.8853,2.8853,2.8854,2.8842,2.884,2.8839,2.8837,2.8884,2.8887,2.8891,2.894,0,0,2.89,2.8902,0,0,0,0,0,0,0,0,2.8736,2.8743,2.8802,2.8803,2.8804,2.8839,2.8831,2.8883,2.8842,2.8827,2.8838,2.8837,2.8871,2.8875,2.8888,2.8942,2.8944,2.8901,2.8903,2.8904,2.8905,0,0,0,0,0,0,0,2.8733,2.8741,2.8822,2.8803,2.8804,2.88,2.8805,2.8841,2.8856,2.8828,2.8828,2.8834,2.8871,2.8885,2.8889,2.8945,2.8901,2.8904,2.8906,2.8907,2.9043,2.9045,0,0,0,0,0,0,2.8729,2.8738,2.882,2.8823,2.8766,2.8803,2.8809,2.8829,2.8856,2.8859,2.8835,2.8833,2.888,2.8885,2.8891,2.8952,2.8904,2.8907,2.8909,2.9042,2.9044,2.9046,0,0,0,0,0,0,2.8727,2.8737,2.8818,2.8781,2.8791,2.8806,2.8829,2.8831,2.8845,2.8861,2.8864,2.8847,2.8879,2.8886,2.8928,2.8953,2.8909,2.8912,2.904,2.9042,2.9045,2.9073,0,0,0,0,0,0,2.8724,2.8736,2.8756,2.8781,2.8793,2.8856,2.8831,2.8833,2.8851,2.8849,2.8873,2.8875,2.8878,2.8924,2.8932,2.8957,2.8914,2.9038,2.9041,2.9044,2.907,2.9077,2.9082,0,0,0,0,0,2.872,2.8761,2.8757,2.8767,2.8818,2.8858,2.8864,2.8869,2.8853,2.8873,2.8884,2.8874,2.8949,2.8928,2.8937,2.8963,2.9036,2.904,2.9044,2.9068,2.9075,2.9082,0,0,0,0,0,0,2.8736,2.8764,2.876,2.8811,2.8832,2.8856,2.8881,2.8876,2.8902,2.8898,2.8901,2.8907,2.895,2.8961,2.8937,2.9013,2.899,2.8996,2.9005,2.9013,2.9018,2.9016,2.8917,0,0,0,0,0,2.8745,2.8777,2.8799,2.8841,2.8852,2.8865,2.8882,2.8884,2.8906,2.8914,2.8928,2.8948,2.8977,2.8995,2.9021,2.9071,2.9077,2.9094,2.91,2.9104,2.911,2.9138,2.9147,2.9058,2.9058,2.9058,0,0,2.8765,2.8784,2.8803,2.8845,2.8862,2.8894,2.8872,2.8906,2.893,2.8919,2.8961,2.8972,2.8994,2.9041,2.9063,2.9051,2.9135,2.9109,2.9113,2.9116,2.9143,2.9151,2.9159,2.906,2.906,2.906,0,0,2.8817,2.8835,2.8873,2.8891,2.8918,2.8926,2.8935,2.896,2.8967,2.901,2.9003,2.9029,2.9077,2.9095,2.911,2.917,2.9163,2.9178,2.9209,2.9237,2.9244,2.925,2.9273,2.9281,2.9183,2.9183,2.9183,0,2.8838,2.8887,2.8892,2.8928,2.8947,2.894,2.8979,2.8995,2.9028,2.9041,2.9028,2.9089,2.9104,2.9156,2.9171,2.9182,2.9193,2.9176,2.9242,2.9249,2.9255,2.9277,2.9285,2.9185,2.9185,2.9184,2.9184,0,2.8912,2.8946,2.8973,2.9009,2.903,2.9066,2.9076,2.9097,2.9097,2.9106,2.915,2.9167,2.9198,2.921,2.9209,2.9262,2.9254,2.9242,2.9219,2.9265,2.9286,2.9294,2.9187,2.9187,2.9186,2.9186,0,0,2.8976,2.9015,2.9025,2.9042,2.9071,2.9097,2.9133,2.9165,2.9183,2.9206,2.9237,2.9278,2.9268,2.9285,2.9285,2.931,2.9358,2.9294,2.9295,2.9307,2.9419,2.943,2.9439,2.9353,2.9355,2.9356,2.9418,0,2.9033,2.9099,2.9105,2.9164,2.9196,2.919,2.9222,2.9243,2.9252,2.928,2.9289,2.932,2.9302,2.9313,2.9336,2.9348,2.9381,2.9343,2.9382,2.9383,2.9378,2.945,2.9461,2.9519,2.9426,2.9427,2.9428,0,2.9108,2.9136,2.9199,2.9226,2.9239,2.9268,2.9298,2.9325,2.9348,2.9353,2.9373,2.9371,2.9407,2.9382,2.9433,2.9407,2.9423,2.943,2.9433,2.9438,2.941,2.9459,2.9537,2.9546,2.9441,2.944,2.9439,0,2.915,2.9203,2.9249,2.9263,2.9294,2.9315,2.9329,2.9351,2.937,2.9396,2.9409,2.9438,2.9454,2.9476,2.9482,2.9463,2.9533,2.9507,2.9538,2.9538,2.9554,2.9554,2.9638,2.9562,2.9562,2.9562,2.9561,0,2.9214,2.9253,2.9269,2.9297,2.934,2.9346,2.9388,2.9401,2.9421,2.945,2.9446,2.9473,2.9478,2.9507,2.9511,2.9553,2.9559,2.9564,2.9566,2.9566,2.9566,2.9578,2.9575,2.9564,2.9563,2.9563,2.9563,0,2.927,2.9282,2.9331,2.9358,2.9365,2.9396,2.9419,2.9445,2.9454,2.9492,2.95,2.9514,2.9548,2.9555,2.9594,2.9597,2.9647,2.9643,2.964,2.9641,2.9672,2.9669,2.9768,2.9782,2.9695,2.9696,2.9696,0,2.931,2.9341,2.9372,2.9392,2.9408,2.944,2.9461,2.9468,2.9489,2.9519,2.9542,2.9575,2.9602,2.9655,2.9668,2.9698,2.9695,2.9728,2.97,2.97,2.9698,2.9697,2.9701,2.9734,2.9735,2.9735,2.9736,0,2.9382,2.9387,2.9418,2.9451,2.9477,2.9503,2.9527,2.9544,2.9554,2.9578,2.9613,2.9634,2.9675,2.9708,2.9738,2.9751,2.9746,2.9745,2.9754,2.9756,2.9754,2.9757,2.9657,2.9743,2.9742,2.9742,2.9741,2.9741,2.9432,2.946,2.9487,2.9522,2.9542,2.9565,2.9592,2.9606,2.9636,2.9671,2.9673,2.9711,2.9734,2.9775,2.9789,2.9819,2.9809,2.9821,2.9825,2.9828,2.9832,2.9748,2.9824,2.9824,2.9824,2.9823,2.9823,0,2.9506,2.9523,2.9555,2.9591,2.9619,2.9613,2.964,2.9663,2.9698,2.9721,2.9748,2.9789,2.9821,2.9837,2.9869,2.989,2.9888,2.9898,2.9897,2.9901,2.9838,2.9829,2.9899,2.9899,2.9899,2.9899,2.9899,2.9899,2.9547,2.9594,2.9602,2.9659,2.9675,2.9715,2.9732,2.9753,2.9772,2.9819,2.9846,2.9857,2.9877,2.9911,2.994,2.9944,2.9956,2.9968,2.9971,2.9913,2.9905,2.9898,2.9888,2.997,2.9971,3.0031,3.0031,3.0032]}]]